 day,  time,  air_temp(C),  RH(%),  ground_temp10cm(C),  ground_temp20cm(C),  ground_temp40cm(C),  precipitation(mm/h),  Solar_Radiation(MJ/m2h),  lack, 
 01/12/01, 01:00,  -1.8,  75,   3.1,   4.5,   5.5,   0.0,  0.00, 
 01/12/01, 02:00,  -0.8,  69,   2.9,   4.4,   5.5,   0.0,  0.00, 
 01/12/01, 03:00,  -0.5,  69,   2.7,   4.4,   5.6,   0.0,  0.00, 
 01/12/01, 04:00,  -1.7,  80,   2.7,   4.3,   5.6,   0.0,  0.00, 
 01/12/01, 05:00,  -1.7,  83,   2.5,   4.2,   5.6,   0.0,  0.00, 
 01/12/01, 06:00,  -1.4,  82,   2.4,   4.1,   5.6,   0.0,  0.00, 
 01/12/01, 07:00,  -1.5,  81,   2.3,   4.1,   5.6,   0.5,  0.00, 
 01/12/01, 08:00,  -2.1,  91,   2.2,   4.0,   5.6,   0.0,  0.09, 
 01/12/01, 09:00,   1.0,  74,   2.3,   4.0,   5.6,   0.0,  0.76, 
 01/12/01, 10:00,   2.3,  65,   2.2,   3.9,   5.6,   0.0,  1.46, 
 01/12/01, 11:00,   1.8,  72,   2.2,   3.9,   5.6,   0.0,  1.42, 
 01/12/01, 12:00,   2.6,  65,   2.3,   3.8,   5.6,   0.0,  1.61, 
 01/12/01, 13:00,   2.5,  57,   2.7,   3.8,   5.6,   0.0,  1.34, 
 01/12/01, 14:00,   2.8,  56,   3.1,   3.8,   5.6,   0.0,  1.04, 
 01/12/01, 15:00,   3.1,  57,   3.4,   3.8,   5.6,   0.0,  1.06, 
 01/12/01, 16:00,   2.1,  62,   3.5,   3.8,   5.5,   0.0,  0.36, 
 01/12/01, 17:00,   1.8,  63,   3.5,   3.9,   5.5,   0.0,  0.02, 
 01/12/01, 18:00,   1.0,  68,   3.4,   3.9,   5.5,   0.0,  0.00, 
 01/12/01, 19:00,   1.0,  58,   3.2,   3.9,   5.5,   0.0,  0.00, 
 01/12/01, 20:00,   1.5,  37,   2.9,   4.0,   5.5,   0.0,  0.00, 
 01/12/01, 21:00,   2.1,  28,   2.8,   4.0,   5.5,   0.0,  0.00, 
 01/12/01, 22:00,  -0.7,  40,   2.6,   4.0,   5.5,   0.0,  0.00, 
 01/12/01, 23:00,  -0.8,  39,   2.5,   3.9,   5.5,   0.0,  0.00, 
 01/12/02, 00:00,  -0.9,  44,   2.3,   3.9,   5.5,   0.0,  0.00, 
 01/12/02, 01:00,  -0.3,  38,   2.2,   3.9,   5.5,   0.0,  0.00, 
 01/12/02, 02:00,   1.0,  34,   2.1,   3.8,   5.5,   0.0,  0.00, 
 01/12/02, 03:00,  -0.6,  52,   2.0,   3.8,   5.5,   0.0,  0.00, 
 01/12/02, 04:00,  -0.4,  55,   1.9,   3.7,   5.5,   0.0,  0.00, 
 01/12/02, 05:00,   0.2,  66,   1.8,   3.7,   5.5,   0.0,  0.00, 
 01/12/02, 06:00,   0.0,  77,   1.8,   3.6,   5.5,   0.0,  0.00, 
 01/12/02, 07:00,  -0.2,  82,   1.7,   3.6,   5.5,   0.0,  0.00, 
 01/12/02, 08:00,   0.5,  83,   1.7,   3.5,   5.5,   0.0,  0.01, 
 01/12/02, 09:00,   1.2,  82,   1.6,   3.5,   5.4,   0.0,  0.29, 
 01/12/02, 10:00,   3.7,  71,   1.7,   3.4,   5.4,   0.0,  1.27, 
 01/12/02, 11:00,   3.8,  69,   1.7,   3.4,   5.4,   0.0,  1.23, 
 01/12/02, 12:00,   3.4,  71,   1.8,   3.3,   5.4,   0.0,  0.66, 
 01/12/02, 13:00,   2.9,  74,   2.1,   3.3,   5.4,   0.0,  0.48, 
 01/12/02, 14:00,   2.5,  77,   2.3,   3.3,   5.4,   0.0,  0.39, 
 01/12/02, 15:00,   2.4,  84,   2.5,   3.3,   5.4,   0.0,  0.66, 
 01/12/02, 16:00,   2.3,  79,   2.7,   3.3,   5.4,   0.0,  0.30, 
 01/12/02, 17:00,   1.6,  80,   2.8,   3.4,   5.4,   0.0,  0.03, 
 01/12/02, 18:00,   0.8,  77,   2.7,   3.4,   5.3,   0.0,  0.00, 
 01/12/02, 19:00,   1.6,  68,   2.5,   3.5,   5.3,   0.0,  0.00, 
 01/12/02, 20:00,   1.9,  60,   2.4,   3.5,   5.3,   0.0,  0.00, 
 01/12/02, 21:00,   1.1,  65,   2.3,   3.5,   5.3,   0.0,  0.00, 
 01/12/02, 22:00,  -1.3,  82,   2.2,   3.5,   5.3,   0.0,  0.00, 
 01/12/02, 23:00,  -0.2,  71,   2.1,   3.5,   5.3,   0.0,  0.00, 
 01/12/03, 00:00,  -0.6,  76,   2.0,   3.5,   5.3,   0.0,  0.00, 
 01/12/03, 01:00,  -0.1,  70,   1.9,   3.4,   5.3,   0.0,  0.00, 
 01/12/03, 02:00,  -1.2,  78,   1.8,   3.4,   5.3,   0.0,  0.00, 
 01/12/03, 03:00,  -1.2,  78,   1.7,   3.4,   5.3,   0.0,  0.00, 
 01/12/03, 04:00,  -1.3,  81,   1.7,   3.3,   5.3,   0.0,  0.00, 
 01/12/03, 05:00,  -0.7,  82,   1.6,   3.3,   5.3,   0.0,  0.00, 
 01/12/03, 06:00,  -1.2,  86,   1.5,   3.3,   5.3,   0.0,  0.00, 
 01/12/03, 07:00,   0.4,  77,   1.5,   3.2,   5.2,   0.0,  0.00, 
 01/12/03, 08:00,   1.7,  76,   1.4,   3.2,   5.2,   0.0,  0.20, 
 01/12/03, 09:00,   2.8,  72,   1.4,   3.2,   5.2,   0.0,  0.27, 
 01/12/03, 10:00,   3.7,  73,   1.4,   3.1,   5.2,   0.0,  0.64, 
 01/12/03, 11:00,   3.7,  76,   1.4,   3.1,   5.2,   0.5,  0.54, 
 01/12/03, 12:00,   4.2,  73,   1.4,   3.1,   5.2,   0.0,  0.67, 
 01/12/03, 13:00,   3.4,  77,   1.5,   3.0,   5.2,   0.0,  0.38, 
 01/12/03, 14:00,   3.3,  81,   1.8,   3.0,   5.2,   0.0,  0.44, 
 01/12/03, 15:00,   4.1,  72,   2.0,   3.0,   5.2,   0.0,  0.96, 
 01/12/03, 16:00,   3.3,  79,   2.2,   3.0,   5.2,   0.0,  0.17, 
 01/12/03, 17:00,   2.6,  85,   2.3,   3.1,   5.2,   0.0,  0.00, 
 01/12/03, 18:00,   2.2,  91,   2.3,   3.1,   5.1,   0.0,  0.00, 
 01/12/03, 19:00,   2.2,  88,   2.4,   3.1,   5.1,   0.0,  0.00, 
 01/12/03, 20:00,   2.9,  83,   2.4,   3.2,   5.1,   0.0,  0.00, 
 01/12/03, 21:00,   2.7,  84,   2.4,   3.2,   5.1,   0.0,  0.00, 
 01/12/03, 22:00,   1.8,  95,   2.4,   3.2,   5.1,   0.0,  0.00, 
 01/12/03, 23:00,   1.6,  94,   2.4,   3.2,   5.1,   0.0,  0.00, 
 01/12/04, 00:00,   0.9,  98,   2.4,   3.3,   5.1,   0.0,  0.00, 
 01/12/04, 01:00,   0.7,  99,   2.3,   3.3,   5.1,   1.5,  0.00, 
 01/12/04, 02:00,   0.4,  99,   2.2,   3.3,   5.1,   0.5,  0.00, 
 01/12/04, 03:00,   0.3,  99,   2.2,   3.3,   5.1,   0.5,  0.00, 
 01/12/04, 04:00,   0.1,  99,   2.1,   3.3,   5.1,   1.0,  0.00, 
 01/12/04, 05:00,   0.1,  99,   2.1,   3.3,   5.1,   1.0,  0.00, 
 01/12/04, 06:00,   0.1,  99,   2.1,   3.3,   5.1,   1.0,  0.00, 
 01/12/04, 07:00,   0.4,  99,   2.1,   3.2,   5.1,   1.0,  0.00, 
 01/12/04, 08:00,   0.8,  99,   2.2,   3.2,   5.1,   0.5,  0.00, 
 01/12/04, 09:00,   2.2,  90,   2.1,   3.2,   5.1,   0.0,  0.10, 
 01/12/04, 10:00,   2.2,  92,   2.1,   3.2,   5.0,   0.5,  0.17, 
 01/12/04, 11:00,   2.0,  99,   2.1,   3.2,   5.0,   0.0,  0.43, 
 01/12/04, 12:00,   3.3,  88,   2.2,   3.2,   5.0,   0.0,  0.70, 
 01/12/04, 13:00,   4.2,  93,   2.3,   3.2,   5.1,   0.0,  1.65, 
 01/12/04, 14:00,   4.4,  84,   2.5,   3.2,   5.1,   0.0,  1.60, 
 01/12/04, 15:00,   3.1,  86,   2.9,   3.2,   5.0,   0.0,  1.09, 
 01/12/04, 16:00,   2.2,  74,   3.0,   3.2,   5.0,   0.0,  0.31, 
 01/12/04, 17:00,   0.8,  83,   3.0,   3.3,   5.0,   0.0,  0.01, 
 01/12/04, 18:00,   0.2,  82,   2.8,   3.3,   5.0,   0.0,  0.00, 
 01/12/04, 19:00,   0.3,  78,   2.7,   3.4,   5.0,   0.0,  0.00, 
 01/12/04, 20:00,  -0.1,  81,   2.4,   3.4,   5.0,   0.0,  0.00, 
 01/12/04, 21:00,  -0.3,  84,   2.3,   3.4,   4.9,   0.0,  0.00, 
 01/12/04, 22:00,  -1.1,  87,   2.3,   3.4,   4.9,   0.0,  0.00, 
 01/12/04, 23:00,  -0.7,  83,   2.1,   3.4,   4.9,   0.0,  0.00, 
 01/12/05, 00:00,  -2.0,  91,   2.0,   3.3,   4.9,   0.0,  0.00, 
 01/12/05, 01:00,  -0.4,  76,   1.9,   3.3,   4.9,   0.0,  0.00, 
 01/12/05, 02:00,   1.0,  68,   1.9,   3.3,   4.9,   0.0,  0.00, 
 01/12/05, 03:00,  -1.1,  83,   1.8,   3.2,   4.9,   0.0,  0.00, 
 01/12/05, 04:00,  -1.4,  84,   1.6,   3.2,   4.9,   0.0,  0.00, 
 01/12/05, 05:00,   1.3,  69,   1.7,   3.2,   4.9,   0.0,  0.00, 
 01/12/05, 06:00,  -0.7,  84,   1.5,   3.1,   4.9,   0.0,  0.00, 
 01/12/05, 07:00,  -0.6,  78,   1.5,   3.1,   4.9,   0.0,  0.00, 
 01/12/05, 08:00,   0.7,  78,   1.5,   3.0,   4.9,   0.0,  0.24, 
 01/12/05, 09:00,   3.9,  62,   1.5,   3.0,   4.9,   0.0,  0.53, 
 01/12/05, 10:00,   5.9,  61,   1.5,   3.0,   4.9,   0.0,  1.37, 
 01/12/05, 11:00,   4.8,  67,   1.4,   2.9,   4.9,   0.0,  1.64, 
 01/12/05, 12:00,   5.2,  61,   1.4,   2.9,   4.9,   0.0,  0.92, 
 01/12/05, 13:00,   6.4,  37,   1.5,   2.9,   4.9,   0.0,  0.76, 
 01/12/05, 14:00,   6.3,  39,   1.8,   2.9,   4.9,   0.0,  0.89, 
 01/12/05, 15:00,   5.5,  45,   2.2,   2.9,   4.9,   0.0,  0.61, 
 01/12/05, 16:00,   4.7,  51,   2.3,   2.9,   4.9,   0.0,  0.14, 
 01/12/05, 17:00,   3.8,  62,   2.4,   2.9,   4.9,   0.0,  0.00, 
 01/12/05, 18:00,   3.5,  66,   2.5,   3.0,   4.9,   0.0,  0.00, 
 01/12/05, 19:00,   3.0,  75,   2.6,   3.0,   4.9,   0.0,  0.00, 
 01/12/05, 20:00,   2.2,  86,   2.6,   3.1,   4.9,   0.0,  0.00, 
 01/12/05, 21:00,   1.8,  90,   2.5,   3.1,   4.8,   0.5,  0.00, 
 01/12/05, 22:00,   0.9,  99,   2.6,   3.2,   4.9,   0.0,  0.00, 
 01/12/05, 23:00,   0.9,  99,   2.4,   3.2,   4.8,   0.0,  0.00, 
 01/12/06, 00:00,   2.2,  94,   2.4,   3.2,   4.9,   0.0,  0.00, 
 01/12/06, 01:00,   2.3,  94,   2.4,   3.2,   4.8,   0.0,  0.00, 
 01/12/06, 02:00,   2.7,  92,   2.4,   3.2,   4.8,   0.0,  0.00, 
 01/12/06, 03:00,   2.5,  98,   2.4,   3.2,   4.8,   0.0,  0.00, 
 01/12/06, 04:00,   1.5,  99,   2.4,   3.2,   4.8,   1.0,  0.00, 
 01/12/06, 05:00,   1.0,  99,   2.4,   3.2,   4.8,   1.0,  0.00, 
 01/12/06, 06:00,   0.9,  99,   2.3,   3.2,   4.8,   1.0,  0.00, 
 01/12/06, 07:00,   1.1,  99,   2.2,   3.2,   4.8,   0.5,  0.00, 
 01/12/06, 08:00,   1.2,  99,   2.2,   3.2,   4.8,   0.5,  0.01, 
 01/12/06, 09:00,   1.1,  99,   2.1,   3.2,   4.8,   0.0,  0.14, 
 01/12/06, 10:00,   2.2,  99,   2.3,   3.2,   4.8,   0.5,  0.45, 
 01/12/06, 11:00,   2.8,  99,   2.3,   3.2,   4.8,   0.0,  0.74, 
 01/12/06, 12:00,   2.9,  94,   2.6,   3.2,   4.8,   0.0,  0.91, 
 01/12/06, 13:00,   2.4,  96,   2.9,   3.2,   4.8,   0.0,  0.50, 
 01/12/06, 14:00,   1.9,  97,   3.1,   3.2,   4.9,   0.0,  0.16, 
 01/12/06, 15:00,   1.9,  91,   3.3,   3.3,   4.8,   0.0,  0.19, 
 01/12/06, 16:00,   1.4,  99,   3.2,   3.3,   4.9,   0.0,  0.04, 
 01/12/06, 17:00,   0.9,  97,   3.2,   3.4,   4.8,   0.0,  0.00, 
 01/12/06, 18:00,   1.1,  93,   3.1,   3.4,   4.8,   0.0,  0.00, 
 01/12/06, 19:00,   0.3,  99,   3.1,   3.5,   4.8,   0.5,  0.00, 
 01/12/06, 20:00,  -0.2,  99,   2.8,   3.5,   4.8,   1.0,  0.00, 
 01/12/06, 21:00,  -1.5,  97,   2.7,   3.5,   4.8,   1.0,  0.00, 
 01/12/06, 22:00,  -1.5,  92,   2.6,   3.5,   4.8,   0.0,  0.00, 
 01/12/06, 23:00,  -1.6,  96,   2.5,   3.5,   4.8,   0.0,  0.00, 
 01/12/07, 00:00,  -1.7,  97,   2.5,   3.5,   4.8,   0.0,  0.00, 
 01/12/07, 01:00,  -2.0,  99,   2.4,   3.4,   4.8,   0.0,  0.00, 
 01/12/07, 02:00,  -2.1,  99,   2.4,   3.4,   4.8,   0.0,  0.00, 
 01/12/07, 03:00,  -2.5,  99,   2.3,   3.4,   4.8,   0.5,  0.00, 
 01/12/07, 04:00,  -3.3,  99,   2.3,   3.4,   4.8,   0.5,  0.00, 
 01/12/07, 05:00,  -3.6,  97,   2.2,   3.4,   4.8,   0.0,  0.00, 
 01/12/07, 06:00,  -3.8,  97,   2.2,   3.3,   4.8,   0.0,  0.00, 
 01/12/07, 07:00,  -3.6,  95,   2.1,   3.3,   4.8,   0.0,  0.00, 
 01/12/07, 08:00,  -3.5,  99,   2.1,   3.3,   4.8,   0.0,  0.07, 
 01/12/07, 09:00,  -3.2,  99,   2.0,   3.3,   4.8,   0.0,  0.24, 
 01/12/07, 10:00,  -2.2,  92,   2.1,   3.2,   4.9,   0.0,  1.38, 
 01/12/07, 11:00,  -2.4,  99,   2.1,   3.2,   4.9,   0.0,  0.66, 
 01/12/07, 12:00,  -1.8,  98,   2.1,   3.2,   4.9,   0.5,  0.53, 
 01/12/07, 13:00,  -1.4,  96,   2.1,   3.2,   4.9,   0.0,  0.68, 
 01/12/07, 14:00,  -1.7,  94,   2.1,   3.2,   4.8,   0.0,  0.74, 
 01/12/07, 15:00,  -2.0,  96,   2.1,   3.1,   4.9,   0.0,  0.44, 
 01/12/07, 16:00,  -2.2,  97,   2.1,   3.1,   4.9,   0.0,  0.14, 
 01/12/07, 17:00,  -3.1,  97,   2.1,   3.1,   4.9,   0.0,  0.06, 
 01/12/07, 18:00,  -3.8,  98,   2.1,   3.1,   4.8,   0.0,  0.00, 
 01/12/07, 19:00,  -3.5,  99,   2.0,   3.1,   4.8,   0.0,  0.00, 
 01/12/07, 20:00,  -3.9,  87,   2.0,   3.1,   4.8,   0.0,  0.00, 
 01/12/07, 21:00,  -4.4,  86,   2.0,   3.1,   4.8,   0.0,  0.00, 
 01/12/07, 22:00,  -4.2,  77,   1.9,   3.1,   4.8,   0.0,  0.00, 
 01/12/07, 23:00,  -3.8,  69,   1.8,   3.0,   4.8,   0.0,  0.00, 
 01/12/08, 00:00,  -4.2,  68,   1.8,   3.0,   4.8,   0.0,  0.00, 
 01/12/08, 01:00,  -3.2,  58,   1.6,   3.0,   4.7,   0.0,  0.00, 
 01/12/08, 02:00,  -5.1,  76,   1.5,   3.0,   4.7,   0.0,  0.00, 
 01/12/08, 03:00,  -5.5,  83,   1.5,   2.9,   4.7,   0.0,  0.00, 
 01/12/08, 04:00,  -3.4,  61,   1.5,   2.9,   4.7,   0.0,  0.00, 
 01/12/08, 05:00,  -4.3,  71,   1.3,   2.9,   4.7,   0.0,  0.00, 
 01/12/08, 06:00,  -4.8,  76,   1.3,   2.8,   4.7,   0.0,  0.00, 
 01/12/08, 07:00,  -3.2,  70,   1.3,   2.8,   4.7,   0.0,  0.00, 
 01/12/08, 08:00,  -1.7,  54,   1.2,   2.8,   4.7,   0.0,  0.17, 
 01/12/08, 09:00,   1.1,  51,   1.2,   2.7,   4.7,   0.0,  0.79, 
 01/12/08, 10:00,   1.8,  54,   1.3,   2.7,   4.7,   0.0,  1.56, 
 01/12/08, 11:00,   0.6,  67,   1.2,   2.7,   4.7,   0.0,  1.25, 
 01/12/08, 12:00,   1.3,  63,   1.2,   2.7,   4.7,   0.0,  1.17, 
 01/12/08, 13:00,   2.3,  65,   1.2,   2.6,   4.8,   0.0,  1.21, 
 01/12/08, 14:00,   2.2,  63,   1.2,   2.6,   4.8,   0.0,  1.41, 
 01/12/08, 15:00,   1.9,  68,   1.2,   2.6,   4.8,   0.0,  1.17, 
 01/12/08, 16:00,   0.6,  76,   1.2,   2.6,   4.7,   0.0,  0.34, 
 01/12/08, 17:00,   0.5,  71,   1.2,   2.5,   4.6,   0.0,  0.07, 
 01/12/08, 18:00,  -0.3,  79,   1.2,   2.5,   4.6,   0.0,  0.00, 
 01/12/08, 19:00,  -0.6,  80,   1.2,   2.5,   4.6,   0.0,  0.00, 
 01/12/08, 20:00,  -1.1,  94,   1.2,   2.5,   4.6,   0.0,  0.00, 
 01/12/08, 21:00,  -1.2,  97,   1.2,   2.5,   4.6,   0.5,  0.00, 
 01/12/08, 22:00,  -1.3,  99,   1.2,   2.5,   4.6,   0.0,  0.00, 
 01/12/08, 23:00,  -0.7,  90,   1.2,   2.5,   4.6,   0.0,  0.00, 
 01/12/09, 00:00,  -0.7,  92,   1.2,   2.5,   4.5,   0.0,  0.00, 
 01/12/09, 01:00,  -1.0,  94,   1.1,   2.4,   4.5,   0.0,  0.00, 
 01/12/09, 02:00,  -1.1,  93,   1.2,   2.4,   4.5,   0.0,  0.00, 
 01/12/09, 03:00,  -1.1,  91,   1.2,   2.4,   4.5,   0.0,  0.00, 
 01/12/09, 04:00,  -1.1,  89,   1.2,   2.4,   4.5,   0.0,  0.00, 
 01/12/09, 05:00,  -2.0,  98,   1.2,   2.4,   4.5,   0.0,  0.00, 
 01/12/09, 06:00,  -2.0,  99,   1.2,   2.4,   4.5,   0.0,  0.00, 
 01/12/09, 07:00,  -2.6,  98,   1.3,   2.4,   4.5,   0.0,  0.00, 
 01/12/09, 08:00,  -2.7,  97,   1.3,   2.4,   4.5,   0.0,  0.04, 
 01/12/09, 09:00,  -2.2,  95,   1.2,   2.4,   4.5,   0.0,  0.41, 
 01/12/09, 10:00,  -2.3,  92,   1.2,   2.4,   4.4,   0.0,  0.53, 
 01/12/09, 11:00,  -2.1,  91,   1.3,   2.4,   4.4,   0.0,  0.70, 
 01/12/09, 12:00,  -0.7,  76,   1.3,   2.4,   4.5,   0.0,  1.42, 
 01/12/09, 13:00,  -0.6,  73,   1.3,   2.4,   4.5,   0.0,  1.44, 
 01/12/09, 14:00,  -1.0,  71,   1.3,   2.4,   4.5,   0.0,  0.89, 
 01/12/09, 15:00,  -1.5,  66,   1.4,   2.4,   4.5,   0.0,  0.74, 
 01/12/09, 16:00,  -3.1,  95,   1.4,   2.4,   4.5,   0.0,  0.24, 
 01/12/09, 17:00,  -2.9,  73,   1.4,   2.4,   4.5,   0.0,  0.02, 
 01/12/09, 18:00,  -4.7,  98,   1.4,   2.4,   4.4,   0.0,  0.00, 
 01/12/09, 19:00,  -5.1,  94,   1.4,   2.4,   4.5,   0.0,  0.00, 
 01/12/09, 20:00,  -4.6,  83,   1.4,   2.4,   4.5,   0.0,  0.00, 
 01/12/09, 21:00,  -4.0,  71,   1.3,   2.4,   4.5,   0.0,  0.00, 
 01/12/09, 22:00,  -4.8,  78,   1.3,   2.4,   4.4,   0.0,  0.00, 
 01/12/09, 23:00,  -4.9,  78,   1.2,   2.4,   4.4,   0.0,  0.00, 
 01/12/10, 00:00,  -5.6,  85,   1.2,   2.4,   4.4,   0.0,  0.00, 
 01/12/10, 01:00,  -4.9,  78,   1.1,   2.4,   4.3,   0.0,  0.00, 
 01/12/10, 02:00,  -4.8,  79,   1.1,   2.4,   4.3,   0.0,  0.00, 
 01/12/10, 03:00,  -5.1,  79,   1.1,   2.3,   4.3,   0.0,  0.00, 
 01/12/10, 04:00,  -4.9,  89,   1.0,   2.3,   4.3,   0.5,  0.00, 
 01/12/10, 05:00,  -5.0,  90,   1.0,   2.3,   4.3,   0.0,  0.00, 
 01/12/10, 06:00,  -4.1,  70,   1.0,   2.3,   4.3,   0.0,  0.00, 
 01/12/10, 07:00,  -4.9,  90,   1.0,   2.3,   4.3,   0.0,  0.00, 
 01/12/10, 08:00,  -4.7,  77,   1.0,   2.2,   4.3,   0.0,  0.10, 
 01/12/10, 09:00,  -4.7,  81,   0.9,   2.2,   4.3,   0.0,  0.47, 
 01/12/10, 10:00,  -3.4,  80,   0.9,   2.2,   4.3,   0.0,  1.02, 
 01/12/10, 11:00,  -3.8,  77,   0.9,   2.2,   4.3,   0.0,  1.35, 
 01/12/10, 12:00,  -3.6,  64,   0.9,   2.3,   4.4,   0.0,  1.55, 
 01/12/10, 13:00,  -3.9,  72,   1.0,   2.3,   4.4,   0.0,  1.28, 
 01/12/10, 14:00,  -4.7,  86,   0.9,   2.2,   4.4,   0.0,  0.96, 
 01/12/10, 15:00,  -5.2,  82,   1.0,   2.2,   4.4,   0.0,  0.64, 
 01/12/10, 16:00,  -5.8,  84,   1.0,   2.2,   4.3,   0.0,  0.23, 
 01/12/10, 17:00,  -6.5,  81,   0.9,   2.1,   4.3,   0.0,  0.00, 
 01/12/10, 18:00,  -6.6,  77,   0.9,   2.1,   4.3,   0.0,  0.00, 
 01/12/10, 19:00,  -7.0,  78,   0.9,   2.1,   4.2,   0.0,  0.00, 
 01/12/10, 20:00,  -7.1,  77,   0.9,   2.1,   4.2,   0.0,  0.00, 
 01/12/10, 21:00,  -7.0,  73,   0.9,   2.1,   4.2,   0.0,  0.00, 
 01/12/10, 22:00,  -7.3,  78,   0.9,   2.1,   4.2,   0.0,  0.00, 
 01/12/10, 23:00,  -7.5,  81,   0.8,   2.0,   4.2,   0.0,  0.00, 
 01/12/11, 00:00,  -7.5,  82,   0.8,   2.0,   4.2,   0.0,  0.00, 
 01/12/11, 01:00,  -7.8,  86,   0.8,   2.0,   4.2,   0.0,  0.00, 
 01/12/11, 02:00,  -7.7,  87,   0.8,   2.0,   4.2,   0.0,  0.00, 
 01/12/11, 03:00,  -7.5,  79,   0.8,   2.0,   4.1,   0.5,  0.00, 
 01/12/11, 04:00,  -7.3,  76,   0.8,   2.0,   4.1,   0.0,  0.00, 
 01/12/11, 05:00,  -7.2,  84,   0.7,   2.0,   4.1,   0.0,  0.00, 
 01/12/11, 06:00,  -7.4,  88,   0.7,   2.0,   4.1,   0.0,  0.00, 
 01/12/11, 07:00,  -7.1,  82,   0.7,   2.0,   4.1,   0.0,  0.00, 
 01/12/11, 08:00,  -7.1,  89,   0.7,   2.0,   4.1,   0.0,  0.05, 
 01/12/11, 09:00,  -6.1,  81,   0.7,   2.0,   4.1,   0.0,  0.59, 
 01/12/11, 10:00,  -5.0,  74,   0.8,   1.9,   4.1,   0.0,  1.42, 
 01/12/11, 11:00,  -5.3,  75,   0.8,   2.0,   4.1,   0.0,  1.34, 
 01/12/11, 12:00,  -4.7,  72,   0.8,   2.0,   4.2,   0.0,  1.08, 
 01/12/11, 13:00,  -5.0,  77,   0.8,   2.0,   4.1,   0.0,  0.95, 
 01/12/11, 14:00,  -5.1,  74,   0.8,   1.9,   4.1,   0.0,  1.15, 
 01/12/11, 15:00,  -5.6,  76,   0.8,   1.9,   4.1,   0.0,  0.79, 
 01/12/11, 16:00,  -5.8,  77,   0.8,   1.9,   4.1,   0.0,  0.23, 
 01/12/11, 17:00,  -6.1,  75,   0.8,   1.9,   4.1,   0.0,  0.05, 
 01/12/11, 18:00,  -6.3,  73,   0.8,   1.9,   4.1,   0.0,  0.00, 
 01/12/11, 19:00,  -6.6,  73,   0.8,   1.9,   4.1,   0.0,  0.00, 
 01/12/11, 20:00,  -6.6,  74,   0.8,   1.9,   4.0,   0.0,  0.00, 
 01/12/11, 21:00,  -6.4,  74,   0.7,   1.9,   4.1,   0.0,  0.00, 
 01/12/11, 22:00,  -7.0,  81,   0.7,   1.9,   4.1,   0.0,  0.00, 
 01/12/11, 23:00,  -7.9,  85,   0.7,   1.9,   4.1,   0.0,  0.00, 
 01/12/12, 00:00,  -7.4,  84,   0.7,   1.8,   4.0,   0.0,  0.00, 
 01/12/12, 01:00,  -8.0,  84,   0.7,   1.8,   4.1,   0.0,  0.00, 
 01/12/12, 02:00,  -7.8,  82,   0.6,   1.8,   4.0,   0.5,  0.00, 
 01/12/12, 03:00,  -8.1,  84,   0.6,   1.8,   4.0,   0.0,  0.00, 
 01/12/12, 04:00,  -7.3,  79,   0.6,   1.8,   4.0,   0.0,  0.00, 
 01/12/12, 05:00,  -8.2,  82,   0.6,   1.8,   3.9,   0.0,  0.00, 
 01/12/12, 06:00,  -7.2,  77,   0.6,   1.8,   3.9,   0.0,  0.00, 
 01/12/12, 07:00,  -9.5,  89,   0.6,   1.8,   3.9,   0.0,  0.00, 
 01/12/12, 08:00,  -7.6,  84,   0.6,   1.8,   3.9,   0.0,  0.22, 
 01/12/12, 09:00,  -4.1,  64,   0.6,   1.8,   3.9,   0.0,  1.24, 
 01/12/12, 10:00,  -2.8,  66,   0.7,   1.8,   3.9,   0.0,  1.92, 
 01/12/12, 11:00,  -1.7,  61,   0.7,   1.8,   4.0,   0.0,  2.13, 
 01/12/12, 12:00,   0.6,  55,   0.7,   1.8,   4.0,   0.0,  2.11, 
 01/12/12, 13:00,   2.6,  52,   0.8,   1.9,   4.0,   0.0,  1.97, 
 01/12/12, 14:00,   2.0,  53,   0.7,   1.8,   4.0,   0.0,  1.64, 
 01/12/12, 15:00,   2.4,  48,   0.7,   1.8,   4.0,   0.0,  1.11, 
 01/12/12, 16:00,   1.9,  48,   0.7,   1.8,   4.0,   0.0,  0.17, 
 01/12/12, 17:00,  -0.2,  58,   0.7,   1.7,   4.0,   0.0,  0.00, 
 01/12/12, 18:00,  -0.3,  53,   0.7,   1.7,   4.0,   0.0,  0.00, 
 01/12/12, 19:00,   1.4,  35,   0.7,   1.7,   3.8,   0.0,  0.00, 
 01/12/12, 20:00,   0.8,  34,   0.7,   1.7,   3.8,   0.0,  0.00, 
 01/12/12, 21:00,  -0.4,  46,   0.7,   1.7,   3.8,   0.0,  0.00, 
 01/12/12, 22:00,   2.4,  29,   0.7,   1.7,   3.8,   0.0,  0.00, 
 01/12/12, 23:00,  -0.5,  53,   0.6,   1.7,   3.8,   0.0,  0.00, 
 01/12/13, 00:00,  -0.7,  57,   0.6,   1.7,   3.8,   0.5,  0.00, 
 01/12/13, 01:00,   1.2,  41,   0.6,   1.7,   3.8,   0.0,  0.00, 
 01/12/13, 02:00,   2.1,  72,   0.5,   1.7,   3.8,   0.0,  0.00, 
 01/12/13, 03:00,   1.0,  90,   0.6,   1.7,   3.8,   0.0,  0.00, 
 01/12/13, 04:00,   0.6,  98,   0.6,   1.7,   3.8,   0.0,  0.00, 
 01/12/13, 05:00,   0.5,  99,   0.6,   1.7,   3.8,   0.0,  0.00, 
 01/12/13, 06:00,   0.9,  98,   0.6,   1.7,   3.8,   0.0,  0.00, 
 01/12/13, 07:00,   1.2,  98,   0.6,   1.7,   3.8,   0.5,  0.00, 
 01/12/13, 08:00,   1.9,  98,   0.5,   1.7,   3.8,   0.5,  0.00, 
 01/12/13, 09:00,   2.4,  96,   0.6,   1.7,   3.8,   1.0,  0.08, 
 01/12/13, 10:00,   2.9,  98,   0.6,   1.7,   3.8,   1.0,  0.29, 
 01/12/13, 11:00,   3.8,  96,   0.6,   1.7,   3.7,   1.5,  0.29, 
 01/12/13, 12:00,   4.6,  99,   0.6,   1.7,   3.7,   3.0,  0.16, 
 01/12/13, 13:00,   5.6,  99,   0.6,   1.6,   3.8,   2.0,  0.13, 
 01/12/13, 14:00,   5.3,  99,   0.6,   1.6,   3.8,   1.0,  0.07, 
 01/12/13, 15:00,   4.3,  99,   0.5,   1.5,   3.8,   7.0,  0.00, 
 01/12/13, 16:00,   4.6,  99,   0.6,   1.6,   3.8,   0.5,  0.00, 
 01/12/13, 17:00,   4.6,  99,   0.5,   1.5,   3.7,   0.5,  0.00, 
 01/12/13, 18:00,   2.9,  99,   0.5,   1.4,   3.7,   1.5,  0.00, 
 01/12/13, 19:00,   1.9,  99,   0.5,   1.4,   3.7,   0.0,  0.00, 
 01/12/13, 20:00,   1.1,  99,   0.5,   1.4,   3.6,   0.5,  0.00, 
 01/12/13, 21:00,   0.5,  99,   0.5,   1.4,   3.6,   0.0,  0.00, 
 01/12/13, 22:00,  -0.3,  99,   0.5,   1.4,   3.6,   0.0,  0.00, 
 01/12/13, 23:00,  -0.8,  96,   0.5,   1.4,   3.6,   0.0,  0.00, 
 01/12/14, 00:00,  -1.4,  89,   0.5,   1.4,   3.5,   0.0,  0.00, 
 01/12/14, 01:00,  -2.0,  85,   0.5,   1.4,   3.4,   0.0,  0.00, 
 01/12/14, 02:00,  -2.4,  83,   0.5,   1.4,   3.4,   0.0,  0.00, 
 01/12/14, 03:00,  -3.2,  95,   0.5,   1.4,   3.4,   0.0,  0.00, 
 01/12/14, 04:00,  -3.3,  86,   0.5,   1.4,   3.5,   0.0,  0.00, 
 01/12/14, 05:00,  -3.6,  89,   0.5,   1.4,   3.5,   0.0,  0.00, 
 01/12/14, 06:00,  -3.9,  98,   0.5,   1.4,   3.5,   0.0,  0.00, 
 01/12/14, 07:00,  -3.8,  98,   0.6,   1.4,   3.4,   1.0,  0.00, 
 01/12/14, 08:00,  -4.2,  98,   0.6,   1.4,   3.4,   0.5,  0.01, 
 01/12/14, 09:00,  -4.8,  92,   0.6,   1.4,   3.4,   0.0,  0.24, 
 01/12/14, 10:00,  -4.5,  91,   0.6,   1.4,   3.5,   0.0,  0.54, 
 01/12/14, 11:00,  -5.1,  91,   0.6,   1.5,   3.5,   0.0,  0.78, 
 01/12/14, 12:00,  -4.3,  89,   0.6,   1.5,   3.5,   0.0,  0.93, 
 01/12/14, 13:00,  -5.2,  93,   0.7,   1.6,   3.4,   0.5,  0.53, 
 01/12/14, 14:00,  -5.7,  94,   0.7,   1.6,   3.5,   0.0,  0.37, 
 01/12/14, 15:00,  -5.8,  97,   0.7,   1.6,   3.4,   1.0,  0.20, 
 01/12/14, 16:00,  -5.8,  97,   0.7,   1.6,   3.4,   1.5,  0.08, 
 01/12/14, 17:00,  -6.1,  97,   0.7,   1.6,   3.4,   1.0,  0.00, 
 01/12/14, 18:00,  -6.5,  97,   0.7,   1.6,   3.4,   0.5,  0.00, 
 01/12/14, 19:00,  -6.8,  96,   0.7,   1.6,   3.4,   0.5,  0.00, 
 01/12/14, 20:00,  -6.6,  97,   0.7,   1.6,   3.4,   0.0,  0.00, 
 01/12/14, 21:00,  -6.7,  97,   0.7,   1.6,   3.4,   0.5,  0.00, 
 01/12/14, 22:00,  -6.6,  96,   0.7,   1.6,   3.4,   0.5,  0.00, 
 01/12/14, 23:00,  -6.5,  96,   0.7,   1.6,   3.4,   0.0,  0.00, 
 01/12/15, 00:00,  -6.7,  96,   0.7,   1.6,   3.4,   0.0,  0.00, 
 01/12/15, 01:00,  -6.7,  96,   0.7,   1.6,   3.4,   0.5,  0.00, 
 01/12/15, 02:00,  -6.6,  95,   0.7,   1.6,   3.4,   1.0,  0.00, 
 01/12/15, 03:00,  -6.4,  96,   0.7,   1.6,   3.4,   1.0,  0.00, 
 01/12/15, 04:00,  -6.2,  96,   0.7,   1.6,   3.4,   1.0,  0.00, 
 01/12/15, 05:00,  -6.2,  96,   0.7,   1.6,   3.4,   1.0,  0.00, 
 01/12/15, 06:00,  -6.6,  97,   0.7,   1.6,   3.4,   1.5,  0.00, 
 01/12/15, 07:00,  -6.8,  99,   0.7,   1.6,   3.4,   1.0,  0.00, 
 01/12/15, 08:00,  -6.9,  98,   0.7,   1.6,   3.4,   1.0,  0.01, 
 01/12/15, 09:00,  -7.0,  98,   0.7,   1.6,   3.4,   0.5,  0.19, 
 01/12/15, 10:00,  -6.5,  97,   0.7,   1.6,   3.4,   1.0,  0.23, 
 01/12/15, 11:00,  -6.1,  97,   0.7,   1.6,   3.4,   1.5,  0.39, 
 01/12/15, 12:00,  -6.1,  99,   0.7,   1.6,   3.4,   1.0,  0.61, 
 01/12/15, 13:00,  -6.1,  99,   0.7,   1.6,   3.4,   0.5,  0.73, 
 01/12/15, 14:00,  -6.4,  98,   0.7,   1.6,   3.4,   1.0,  0.38, 
 01/12/15, 15:00,  -6.5,  97,   0.7,   1.6,   3.4,   1.5,  0.35, 
 01/12/15, 16:00,  -6.7,  96,   0.7,   1.6,   3.4,   1.0,  0.12, 
 01/12/15, 17:00,  -6.9,  96,   0.6,   1.6,   3.4,   0.5,  0.00, 
 01/12/15, 18:00,  -6.8,  98,   0.6,   1.6,   3.4,   1.5,  0.00, 
 01/12/15, 19:00,  -6.7,  98,   0.6,   1.6,   3.4,   0.5,  0.00, 
 01/12/15, 20:00,  -6.5,  97,   0.6,   1.5,   3.4,   0.5,  0.00, 
 01/12/15, 21:00,  -6.6,  97,   0.6,   1.5,   3.4,   0.5,  0.00, 
 01/12/15, 22:00,  -6.7,  99,   0.6,   1.5,   3.4,   0.5,  0.00, 
 01/12/15, 23:00,  -7.1,  93,   0.6,   1.5,   3.4,   0.0,  0.00, 
 01/12/16, 00:00,  -7.1,  95,   0.6,   1.5,   3.3,   0.0,  0.00, 
 01/12/16, 01:00,  -6.7,  94,   0.6,   1.5,   3.3,   0.0,  0.00, 